Eau Claire, WI

1:59 PM CDT on June 26, 2017 (GMT -0500)
Chippewa Valley Regional

Weather History for KEAU - October, 2010

Change the Weather History Date:

Wednesday, October 6, 2010

  Actual Average Record
Temperature  
Mean Temperature 58 °F 51 °F  
Max Temperature 73 °F 63 °F 87 °F (2007)
Min Temperature 42 °F 40 °F 20 °F (1935)
Degree Days  
Heating Degree Days 7 14  
Month to date heating degree days 98 79  
Since 1 July heating degree days 325 312  
Cooling Degree Days 0 0  
Month to date cooling degree days 0 4  
Year to date cooling degree days 684 579  
Growing Degree Days 8 (Base 50)    
Moisture  
Dew Point 42 °F    
Average Humidity 66    
Maximum Humidity 100    
Minimum Humidity 31    
Precipitation  
Precipitation 0.00 in 0.09 in 3.27 in (1911)
Month to date precipitation 0.04 0.59  
Year to date precipitation 32.05 26.39  
Snow  
Snow 0.00 in 0.00 in T in (2012)
Month to date snowfall 0.0 0.0  
Since 1 July snowfall 0.0 0.0  
Since 1 September snowfall 0.0 0.0  
Snow Depth 0.00 in    
Sea Level Pressure  
Sea Level Pressure 30.09 in    
Wind  
Wind Speed 5 mph (NW)    
Max Wind Speed 18 mph    
Max Gust Speed 24 mph    
Visibility 10 miles    
Events      
T = Trace of Precipitation, MM = Missing Value Source: NWS Daily Summary

Daily Weather History Graph

Daily Weather History Graph

Search for Another Location

Airport or City:

Trip Planner

Search our weather history database for the weather conditions in past years. The results will help you decide how hot, cold, wet, or windy it might be!

Date:

Astronomy

Oct. 06, 2010 Rise Set
Actual Time 7:10 AM CDT 6:37 PM CDT
Civil Twilight 6:40 AM CDT 7:06 PM CDT
Nautical Twilight 6:06 AM CDT 7:40 PM CDT
Astronomical Twilight 5:32 AM CDT 8:14 PM CDT
Moon 5:45 AM CDT (10/6) 5:40 PM CDT (10/6)
Length of Visible Light 12h 25m
Length of Day
11h 27m
Waning Crescent, 2% of the Moon is Illuminated
Oct 6
Waning Crescent
Oct 7
New
Oct 14
First Quarter
Oct 22
Full
Oct 30
Last Quarter

Hourly Weather History & Observations

Time (CDT) Temp. Windchill Dew Point Humidity Pressure Visibility Wind Dir Wind Speed Gust Speed Precip Events Conditions
12:56 AM 46.0 °F - 42.1 °F 86% 30.20 in 10.0 mi Calm Calm - N/A   Clear
1:56 AM 43.0 °F - 41.0 °F 93% 30.19 in 10.0 mi Calm Calm - N/A   Clear
2:56 AM 43.0 °F - 41.0 °F 93% 30.16 in 10.0 mi Calm Calm - N/A   Clear
3:56 AM 43.0 °F 41.3 °F 42.1 °F 97% 30.13 in 10.0 mi SSW 3.5 mph - N/A   Clear
4:56 AM 44.1 °F - 41.0 °F 89% 30.10 in 10.0 mi Calm Calm - N/A   Clear
5:56 AM 45.0 °F - 43.0 °F 93% 30.10 in 10.0 mi Calm Calm - N/A   Clear
6:56 AM 43.0 °F - 41.0 °F 93% 30.09 in 10.0 mi Calm Calm - N/A   Clear
7:56 AM 44.1 °F - 42.1 °F 93% 30.10 in 10.0 mi Calm Calm - N/A   Clear
8:56 AM 54.0 °F - 45.0 °F 72% 30.09 in 10.0 mi WSW 3.5 mph - N/A   Clear
9:56 AM 61.0 °F - 46.9 °F 60% 30.09 in 10.0 mi WNW 6.9 mph - N/A   Clear
10:56 AM 66.0 °F - 48.9 °F 54% 30.09 in 10.0 mi North 11.5 mph 19.6 mph N/A   Clear
11:56 AM 68.0 °F - 50.0 °F 52% 30.09 in 10.0 mi North 10.4 mph - N/A   Clear
12:56 PM 71.1 °F - 46.0 °F 41% 30.08 in 10.0 mi NNW 10.4 mph 17.3 mph N/A   Clear
1:56 PM 72.0 °F - 42.1 °F 34% 30.07 in 10.0 mi NNW 11.5 mph 17.3 mph N/A   Clear
2:56 PM 72.0 °F - 39.9 °F 31% 30.06 in 10.0 mi NNW 12.7 mph 21.9 mph N/A   Clear
3:56 PM 72.0 °F - 39.0 °F 30% 30.05 in 10.0 mi NW 9.2 mph - N/A   Clear
4:56 PM 70.0 °F - 37.0 °F 30% 30.05 in 10.0 mi NNW 12.7 mph 20.7 mph N/A   Clear
5:56 PM 66.9 °F - 39.0 °F 36% 30.06 in 10.0 mi NW 8.1 mph - N/A   Clear
6:56 PM 59.0 °F - 39.0 °F 48% 30.06 in 10.0 mi NW 5.8 mph - N/A   Clear
7:56 PM 57.0 °F - 39.0 °F 51% 30.07 in 10.0 mi WNW 4.6 mph - N/A   Clear
8:56 PM 51.1 °F - 39.9 °F 66% 30.08 in 10.0 mi Calm Calm - N/A   Clear
9:56 PM 50.0 °F - 39.0 °F 66% 30.08 in 10.0 mi Calm Calm - N/A   Clear
10:56 PM 48.0 °F - 37.9 °F 68% 30.08 in 10.0 mi SSW 3.5 mph - N/A   Clear
11:56 PM 46.9 °F - 37.9 °F 71% 30.08 in 10.0 mi Calm Calm - N/A   Clear